This is the latest recevied weather packets stored in our database for station/object K7LDN-13. If no packets are shown the sender has not sent any weather packets the latest 10 day(s).
| Time | Temp. | Humidity | Pressure | Rain* | Wind** | Luminosity | Snow |
|---|---|---|---|---|---|---|---|
| 1777651303 | 13.89° C | 34% | 1023.7 hPa | 0 mm | - | 595 W/m² | - |
| 1777651000 | 14.44° C | 36% | 1023.7 hPa | 0 mm | - | 579 W/m² | - |
| 1777650697 | 13.33° C | 36% | 1023.6 hPa | 0 mm | - | 556 W/m² | - |
| 1777650394 | 13.33° C | 37% | 1023.3 hPa | 0 mm | - | 539 W/m² | - |
| 1777650091 | 13.33° C | 37% | 1023.7 hPa | 0 mm | - | 519 W/m² | - |
| 1777649789 | 13.33° C | 37% | 1023.5 hPa | 0 mm | - | 500 W/m² | - |
| 1777649485 | 13.33° C | 36% | 1023.6 hPa | 0 mm | - | 484 W/m² | - |
| 1777649182 | 13.33° C | 37% | 1023.5 hPa | 0 mm | - | 464 W/m² | - |
| 1777648879 | 12.22° C | 39% | 1023.5 hPa | 0 mm | - | 447 W/m² | - |
| 1777648273 | 12.22° C | 38% | 1023.4 hPa | 0 mm | - | 421 W/m² | - |
| 1777647969 | 12.78° C | 39% | 1023.6 hPa | 0 mm | - | 406 W/m² | - |
| 1777647665 | 12.22° C | 39% | 1023.4 hPa | 0 mm | - | 391 W/m² | - |
| 1777647361 | 12.22° C | 39% | 1023.4 hPa | 0 mm | - | 374 W/m² | - |
| 1777647059 | 12.22° C | 39% | 1023.6 hPa | 0 mm | - | 355 W/m² | - |
| 1777646755 | 11.67° C | 39% | 1023.4 hPa | 0 mm | - | 339 W/m² | - |
| 1777646450 | 12.78° C | 38% | 1023.3 hPa | 0 mm | - | 326 W/m² | - |
| 1777646147 | 12.22° C | 41% | 1023.4 hPa | 0 mm | - | 316 W/m² | - |
| 1777645844 | 11.11° C | 40% | 1023.4 hPa | 0 mm | - | 303 W/m² | - |
| 1777645541 | 11.67° C | 41% | 1023.2 hPa | 0 mm | - | 289 W/m² | - |
| 1777645238 | 10° C | 43% | 1023.4 hPa | 0 mm | - | 271 W/m² | - |
| 1777644933 | 10.56° C | 43% | 1023.3 hPa | 0 mm | - | 249 W/m² | - |
| 1777644631 | 10° C | 43% | 1023.3 hPa | 0 mm | - | 227 W/m² | - |
| 1777644327 | 10° C | 44% | 1023.3 hPa | 0 mm | - | 202 W/m² | - |
| 1777644023 | 10° C | 43% | 1023.2 hPa | 0 mm | - | 186 W/m² | - |
| 1777643720 | 8.89° C | 45% | 1023.2 hPa | 0 mm | - | 166 W/m² | - |
* Rain latest hour (hover to see other rain measurements)
** Current wind speed in m/s (hover to see current wind gust speed)